Location: Mt. Graham
(32.7020°N, 109.8880°W)
Time: 18:42:49
(UTC-07:00)

Envisat - Visible Passes

Search period start: 27 February 2024 00:00
Search period end: 08 March 2024 00:00
Orbit: 762 x 764 km, 98.3° (Epoch: 27 February)

Date Brightness Start Highest point End Pass type
(mag) Time Alt. Az. Time Alt. Az. Time Alt. Az.
05 Mar 5.5 04:17:01 10° N 04:17:05 10° N 04:17:05 10° N visible
06 Mar 5.8 03:39:26 10° NNE 03:39:29 10° NNE 03:39:29 10° NNE visible
07 Mar 5.4 04:42:03 10° NNW 04:42:04 10° NNW 04:42:04 10° NNW visible
